Weather in Borok Sulezhskiy

Russia / Tver Oblast     57°54′35″N   36°50′20″E
temp.,
°C
wind,
m/s
gust,
m/s
humid.,
%
clouds,
%
prec.,
mm/h
press.,
hPa
HPBL,
m
8 may, sat
sat800:00+5s388596 0.0 1010140
03:00+5se4108762 0.0 1009204
06:00+6s61478100 0.0 1008527
09:00+7sse81590100 0.8 10071137
12:00+8sse61192100 0.1 1006874
15:00+8sse4892100 0.2 1005586
18:00+7ese1398100 1.9 1004207
21:00+6nnw71291100 5.1 1004637
9 may, sun
sun900:00+5nnw61289100 0.6 1004774
03:00+4nw71390100 0.7 1006785
06:00+3nw71288100 0.1 1008988
09:00+5nw71179100 0.1 10101030
12:00+9nw8114786 0.0 10121874
15:00+11nw8104575 0.0 10152374
18:00+11nw595068 0.0 10172200
21:00+5wnw38643 0.0 1021128
10 may, mon
mon1000:00+3nw23720 0.0 102330
03:00+2wsw226891 0.0 102611
06:00+3ssw246921 0.0 102789
09:00+10ssw57575 0.0 1028551
12:00+13sw794789 0.0 10271806
15:00+11ssw596196 0.0 1027655
18:00+14sw476341 0.0 1027761
21:00+9ssw35825 0.0 102860
11 may, tue
tue1100:00+7ssw378647 0.0 1029104
03:00+7sw3590100 0.0 103071
06:00+8ssw248691 0.0 103093
09:00+14ssw3568100 0.0 1030427
12:00+17ssw4457100 0.0 10301000
15:00+19ssw4553100 0.0 10301257
18:00+18s2363100 0.0 1029216
21:00+13sse338064 0.0 102943
12 may, wed
wed1200:00+11sse34853 0.0 103056
03:00+10se22880 0.0 103012
06:00+10se35860 0.0 1030139
09:00+15se46625 0.0 1029515
12:00+18se565257 0.0 10281033
15:00+20se45465 0.0 10271226
18:00+19se35590 0.0 1027688
21:00+14ese34786 0.0 102761